Location: Hilton Head Island
(32.2163°N, 80.7526°W)
Time: 15:39:18
(UTC-05:00)

Explorer 11/Cluster Stage 4 - Pass Details

Date: 19 February 2026
Orbit: 463 x 1176 km, 28.8° (Epoch: 6 March)

Event Time Altitude Azimuth Distance (km) Brightness Sun altitude
Rises 10:54:38 0° 217° (SW) 3,307 10.0 40.3°
Reaches altitude 10° 10:58:11 10° 198° (SSW) 2,213 9.5 40.7°
Maximum altitude 11:01:22 16° 160° (SSE) 1,683 9.7 41.0°
Drops below altitude 10° 11:04:12 10° 120° (ESE) 1,947 9.5 41.3°
Sets 11:07:03 0° 99° (E) 2,731 9.8 41.7°
